Location: Lewisville
(33.0462°N, 96.9942°W)
Time: 07:23:24
(UTC-05:00)

Tiangong - Pass Details

Date: 11 December 2022
Orbit: 374 x 380 km, 41.5° (Epoch: 29 March)

Event Time Altitude Azimuth Distance (km) Brightness Sun altitude
Rises 17:47:29 0° 300° (WNW) 2,307 2.4 -5.7°
Reaches altitude 10° 17:49:38 10° 304° (NW) 1,436 1.2 -6.1°
Maximum altitude 17:52:49 58° 24° (NNE) 460 -2.0 -6.7°
Drops below altitude 10° 17:55:57 10° 105° (ESE) 1,401 0.2 -7.3°
Enters shadow 17:57:03 - 108° (ESE) 1,850 0.9 -7.6°
